Wind_Speed
40 41 41 41 42 42 42 41 41 42 43 43 44 44 43 44 44 45 44 45 45 45 45 46 47 46 46 46 46 47 47 47 47 46 45 45 45 45 45 45 45 45 45
40 40 41 41 42 42 42 42 42 42 44 44 45 45 45 45 45 45 45 45 46 46 46 46 46 46 46 46 47 47 48 48 47 47 47 46 46 46 46 46 46 46 46
40 40 40 41 41 42 43 44 43 43 43 44 45 46 46 46 46 46 46 46 47 47 46 46 46 46 47 47 47 47 48 48 48 48 48 48 48 48 48 48 48 48 48
40 41 41 42 42 42 43 44 44 44 44 44 45 46 47 47 47 48 48 48 48 48 48 48 48 48 48 48 48 48 48 48 48 49 49 50 50 49 49 49 50 50 50
41 41 42 43 43 43 43 44 45 46 46 46 46 46 47 47 48 49 49 49 49 48 48 49 50 50 50 50 50 50 49 49 50 50 50 50 51 51 51 51 51 51 51
41 41 42 43 43 44 44 45 46 47 47 47 47 47 48 48 48 49 49 49 50 50 49 49 50 51 52 52 52 52 51 51 51 50 50 51 52 52 52 52 51 52 52
40 41 42 43 44 45 46 46 46 47 49 49 49 49 49 49 50 50 50 50 51 51 51 51 51 52 52 53 53 53 53 53 53 53 52 52 53 53 53 53 53 53 53
40 41 42 43 44 45 46 47 48 48 49 50 50 50 51 51 51 51 51 51 51 51 51 52 52 52 53 53 54 54 53 54 55 54 54 54 54 54 55 55 55 56 56
41 42 42 42 43 44 46 47 47 48 49 50 50 51 51 52 52 52 52 52 53 52 52 52 53 54 54 55 55 55 55 55 55 55 56 56 56 57 56 57 57 57 56
40 41 41 42 43 43 44 45 46 47 48 49 49 50 51 52 52 53 53 53 53 53 53 53 54 54 54 55 55 56 56 56 56 57 56 56 57 57 57 57 57 58 58
38 39 40 41 42 42 43 44 45 46 47 48 48 49 50 51 51 52 53 53 53 53 53 53 54 54 54 55 55 55 56 56 57 57 57 58 58 58 58 58 58 58 59
38 39 39 40 40 41 42 43 44 45 46 47 48 48 49 50 51 52 52 53 53 54 54 54 55 55 55 56 56 56 56 57 57 57 58 58 58 58 59 59 59 59 60
39 39 39 39 39 40 41 42 43 44 44 45 46 47 48 48 49 50 51 52 53 54 54 55 54 54 55 55 55 56 56 56 57 57 58 58 59 59 60 60 60 60 59
39 39 39 39 39 40 41 41 42 43 43 44 45 46 46 47 48 49 49 51 52 53 54 54 54 54 54 54 55 55 56 56 57 57 58 58 59 59 60 60 60 60 60
39 40 40 40 40 39 40 40 41 42 42 42 43 43 44 45 46 47 47 48 49 50 51 53 54 54 55 55 55 55 55 55 56 56 57 58 58 58 59 61 61 61 61
38 39 39 39 39 38 39 40 40 40 41 40 40 40 40 41 42 43 44 45 46 47 48 49 51 52 53 54 53 54 54 54 56 56 57 58 58 58 58 59 60 60 60
38 38 37 37 38 38 38 37 38 38 38 38 38 38 39 39 40 41 41 43 44 45 46 47 48 49 51 52 52 52 52 53 54 55 55 56 56 56 57 58 58 58 58
36 35 35 35 35 36 36 36 36 36 36 37 37 38 38 38 38 39 40 40 41 42 43 44 44 46 47 49 50 51 51 52 51 52 52 53 54 54 55 56 57 57 56
34 34 34 34 34 35 35 35 35 36 36 37 37 37 38 37 37 38 39 39 40 40 41 42 43 44 46 47 48 49 50 51 50 50 50 50 51 52 54 55 55 56 57
34 34 34 35 35 35 35 34 34 35 35 36 36 37 37 38 37 37 37 38 38 39 40 40 41 42 43 44 45 46 48 49 49 50 49 50 50 51 51 52 53 54 54
34 33 33 34 34 34 34 33 34 34 35 35 36 36 37 37 37 37 37 38 38 38 39 39 40 41 41 42 43 44 45 46 47 48 49 49 50 51 52 52 51 51 52
32 32 32 33 33 33 33 33 33 33 33 34 35 35 35 36 36 37 38 38 38 39 39 39 39 40 41 41 42 43 44 44 46 46 47 48 49 50 50 50 50 51 51
30 30 30 31 31 31 31 31 32 32 32 33 33 34 34 35 36 36 37 38 38 38 39 39 40 40 40 41 42 42 43 44 44 45 46 47 48 49 50 50 50 50 51
29 29 29 29 29 29 30 30 31 31 32 32 33 33 34 35 35 36 37 37 37 38 38 38 38 39 39 40 40 40 41 41 43 44 45 46 46 47 48 49 49 50 51
28 28 27 27 28 28 28 29 29 30 31 32 32 33 34 35 35 36 36 37 37 38 37 38 38 38 38 38 39 39 39 40 40 42 43 44 45 46 47 47 48 49 50
27 27 27 27 27 27 27 28 29 29 30 31 32 33 34 34 35 35 36 36 36 37 37 37 37 37 37 38 38 38 38 38 38 39 39 40 41 42 43 44 45 46 47
Wind_Direction
267 266 265 264 263 262 261 260 259 258 258 258 259 260 260 261 260 260 261 261 260 260 260 259 259 259 258 257 256 256 255 255 255 254 254 254 253 253 252 252 252 251 250
268 267 266 265 264 262 260 259 259 259 258 258 259 259 260 260 260 260 260 260 260 259 259 259 258 257 257 257 257 256 256 255 255 255 254 252 252 253 252 252 252 252 251
268 268 267 266 265 263 261 260 259 258 259 259 259 259 260 260 260 260 260 260 260 260 259 259 258 257 256 256 256 256 256 255 255 255 254 253 253 253 253 252 251 252 251
268 267 267 266 264 262 261 260 259 259 259 260 260 260 260 260 260 261 261 261 260 261 260 259 259 258 257 257 257 256 256 256 256 256 255 254 253 253 252 251 251 251 251
268 268 267 266 264 262 261 260 259 259 260 261 261 261 261 260 260 260 261 261 260 261 260 259 258 258 258 257 257 257 257 257 257 257 256 255 254 253 253 251 251 251 251
270 268 267 266 264 263 261 261 260 260 260 261 261 261 260 260 260 261 261 261 261 261 260 260 259 258 258 257 257 258 258 258 258 257 257 256 254 254 253 252 250 251 251
271 270 269 268 266 265 263 262 261 261 260 261 262 261 260 260 261 261 261 261 261 261 261 261 260 259 259 259 258 258 258 258 258 257 257 256 255 254 254 253 251 251 251
272 271 271 269 268 267 266 264 263 262 261 261 262 262 261 261 262 262 261 261 261 261 262 262 261 260 260 260 260 259 258 259 258 258 257 257 256 255 255 254 253 252 251
274 273 272 270 269 268 267 266 265 263 262 262 262 262 262 262 262 263 262 261 261 261 262 262 261 261 261 260 260 260 259 259 258 257 257 257 257 256 255 255 254 253 251
278 277 274 272 270 269 269 268 267 266 264 263 263 263 263 262 263 263 263 262 261 261 262 262 262 262 261 261 260 260 260 258 257 257 256 257 257 257 255 254 254 253 252
281 279 277 275 274 272 270 270 269 268 266 265 265 264 263 263 263 263 263 263 262 262 262 261 262 262 262 261 261 261 260 259 259 257 256 256 256 256 255 255 254 253 253
282 281 280 278 276 274 273 272 271 270 269 267 265 265 264 264 264 264 264 263 263 263 262 261 261 262 262 262 261 261 260 259 258 258 257 256 255 255 255 255 255 255 254
282 281 280 278 277 276 275 274 273 272 270 269 267 267 266 265 265 265 265 264 264 263 262 261 261 261 262 262 261 261 261 260 259 258 258 257 257 256 255 255 255 254 253
283 282 280 279 278 277 276 275 274 273 272 271 270 269 268 266 266 266 266 266 265 264 262 261 260 261 262 261 261 261 260 260 259 258 258 258 258 257 256 255 254 254 253
284 282 281 279 280 279 277 276 274 273 272 273 273 271 270 268 267 267 267 267 266 265 263 262 261 261 262 261 261 261 260 260 259 259 258 257 257 257 256 255 254 253 253
284 283 281 281 281 280 279 277 276 274 273 272 273 272 271 270 269 269 269 268 267 265 264 263 262 262 262 261 261 261 261 260 259 259 258 257 257 256 255 254 253 252 252
287 286 283 282 281 280 280 279 276 275 273 272 271 272 272 272 272 271 271 270 269 267 266 265 263 263 263 263 262 261 261 261 260 259 258 257 257 256 255 254 252 252 251
289 288 285 284 282 281 279 279 277 275 274 272 271 271 272 273 273 272 272 272 271 270 268 267 266 265 264 264 263 263 262 261 261 260 258 257 256 255 255 254 253 252 252
289 288 285 283 283 282 282 280 279 277 276 274 272 272 272 273 273 273 273 273 273 271 270 269 267 267 266 265 264 263 262 261 261 259 258 257 256 255 254 254 254 253 253
290 288 286 285 284 283 283 282 280 278 277 276 274 274 273 273 273 273 273 274 273 273 271 270 270 269 268 266 265 265 264 263 261 259 258 257 257 256 255 255 254 253 252
292 290 288 286 284 284 284 283 281 280 279 277 276 275 275 274 274 274 274 275 275 274 273 271 270 270 269 268 267 266 265 263 262 261 259 258 257 257 256 255 253 252 251
295 294 292 289 286 285 285 284 282 281 280 279 277 277 276 276 276 275 276 276 277 276 274 273 272 271 270 270 269 268 266 264 262 260 259 258 257 257 256 254 253 252 251
298 296 294 292 289 287 285 284 283 282 280 279 278 278 278 278 278 277 277 277 278 278 276 275 273 272 271 271 271 270 268 266 264 261 260 259 258 257 256 254 253 252 251
300 298 296 294 292 289 287 286 284 283 283 281 279 279 279 280 280 279 279 278 278 278 277 276 275 273 272 272 272 271 270 269 266 264 262 260 258 256 255 254 253 252 251
301 299 299 297 295 293 290 289 288 286 285 285 283 283 282 282 282 281 280 280 279 279 277 277 276 275 273 273 272 271 270 269 268 265 263 261 260 258 256 254 253 252 251
304 302 300 299 298 296 293 291 290 290 289 288 287 286 285 285 284 283 282 282 281 280 279 278 278 277 276 274 273 272 271 270 268 266 263 262 260 259 257 254 252 251 251
Height
5695 5694 5694 5694 5694 5694 5694 5694 5695 5695 5696 5696 5697 5698 5698 5698 5699 5699 5699 5700 5701 5701 5702 5703 5705 5706 5708 5709 5710 5712 5714 5715 5717 5719 5722 5724 5726 5728 5730 5733 5735 5738 5741
5684 5683 5683 5682 5682 5682 5682 5683 5684 5684 5684 5685 5685 5686 5686 5687 5687 5687 5688 5688 5689 5689 5690 5691 5693 5694 5696 5697 5698 5700 5701 5703 5705 5707 5709 5712 5715 5717 5719 5721 5724 5727 5729
5672 5672 5671 5671 5671 5670 5671 5671 5672 5672 5672 5672 5673 5674 5674 5675 5675 5676 5676 5676 5676 5677 5678 5679 5680 5682 5684 5685 5687 5688 5690 5691 5693 5695 5697 5700 5702 5704 5707 5709 5712 5714 5717
5661 5660 5659 5659 5658 5658 5658 5658 5659 5660 5660 5660 5660 5661 5662 5663 5663 5663 5663 5664 5664 5664 5665 5666 5668 5669 5671 5673 5674 5676 5677 5679 5680 5682 5684 5687 5689 5691 5694 5696 5699 5701 5704
5649 5648 5647 5646 5646 5646 5646 5646 5647 5647 5648 5648 5649 5649 5649 5650 5650 5651 5651 5651 5651 5652 5652 5654 5655 5656 5658 5660 5661 5663 5665 5666 5668 5669 5671 5673 5675 5677 5680 5684 5686 5688 5691
5637 5636 5635 5634 5634 5634 5634 5634 5634 5635 5635 5636 5636 5636 5636 5637 5637 5638 5638 5638 5639 5639 5640 5641 5642 5643 5645 5647 5648 5650 5651 5653 5654 5656 5657 5659 5661 5664 5666 5670 5672 5675 5678
5625 5624 5623 5622 5621 5621 5621 5621 5621 5622 5622 5622 5622 5623 5623 5623 5624 5625 5625 5625 5626 5626 5627 5628 5629 5630 5631 5633 5634 5636 5638 5639 5641 5642 5644 5646 5648 5650 5652 5655 5658 5661 5664
5613 5611 5610 5609 5609 5608 5608 5608 5608 5608 5608 5609 5609 5609 5609 5610 5610 5611 5611 5611 5612 5613 5613 5614 5615 5616 5617 5618 5620 5621 5623 5625 5626 5628 5630 5632 5634 5636 5638 5641 5644 5647 5650
5601 5599 5598 5597 5596 5595 5595 5594 5594 5594 5594 5594 5595 5595 5595 5595 5596 5596 5596 5597 5598 5598 5599 5600 5601 5602 5603 5603 5605 5606 5608 5610 5611 5613 5615 5617 5619 5621 5623 5625 5628 5632 5635
5589 5587 5585 5584 5583 5582 5582 5581 5580 5580 5580 5580 5580 5581 5581 5581 5581 5581 5582 5582 5583 5584 5585 5585 5586 5587 5588 5589 5589 5591 5592 5594 5596 5598 5600 5602 5604 5605 5608 5610 5613 5616 5619
5577 5575 5573 5572 5571 5570 5569 5568 5567 5566 5566 5566 5566 5566 5566 5566 5567 5566 5567 5567 5568 5568 5569 5570 5571 5571 5572 5573 5574 5575 5576 5578 5580 5582 5584 5586 5588 5590 5592 5595 5597 5600 5603
5566 5563 5561 5560 5558 5557 5556 5555 5554 5553 5552 5552 5552 5552 5552 5552 5552 5552 5552 5552 5553 5553 5554 5554 5555 5556 5556 5557 5558 5559 5561 5562 5564 5566 5567 5569 5571 5574 5576 5578 5581 5584 5586
5554 5552 5550 5548 5546 5545 5543 5542 5541 5540 5539 5538 5538 5537 5537 5537 5537 5537 5537 5537 5537 5538 5538 5539 5539 5540 5541 5541 5542 5543 5544 5545 5547 5549 5551 5553 5555 5557 5559 5562 5564 5566 5569
5543 5541 5538 5536 5534 5532 5531 5529 5528 5527 5526 5525 5524 5523 5523 5522 5522 5522 5521 5521 5521 5522 5522 5522 5523 5524 5524 5525 5526 5527 5528 5529 5531 5532 5534 5536 5538 5540 5542 5544 5547 5549 5553
5532 5529 5527 5525 5523 5521 5518 5517 5515 5514 5513 5512 5511 5510 5509 5508 5507 5507 5507 5506 5506 5506 5506 5507 5507 5508 5508 5509 5509 5510 5511 5512 5514 5515 5517 5519 5520 5522 5524 5527 5530 5533 5536
5520 5518 5515 5513 5511 5508 5506 5505 5503 5502 5500 5500 5499 5497 5496 5495 5494 5493 5493 5492 5492 5491 5491 5491 5492 5492 5492 5492 5493 5493 5495 5496 5497 5499 5500 5502 5503 5505 5507 5510 5513 5516 5520
5509 5506 5503 5501 5499 5497 5495 5493 5491 5490 5488 5487 5486 5485 5484 5483 5482 5481 5480 5479 5478 5478 5477 5477 5477 5477 5477 5477 5477 5477 5478 5480 5481 5483 5484 5485 5487 5489 5491 5493 5496 5500 5503
5498 5495 5493 5490 5488 5485 5483 5481 5479 5478 5477 5476 5475 5473 5473 5472 5470 5469 5468 5466 5465 5464 5464 5463 5463 5463 5463 5462 5462 5462 5463 5465 5466 5467 5468 5470 5472 5473 5475 5478 5480 5483 5487
5488 5485 5482 5480 5477 5475 5473 5470 5469 5467 5466 5464 5463 5462 5461 5460 5459 5458 5456 5455 5453 5452 5451 5450 5450 5449 5449 5448 5448 5448 5449 5450 5451 5452 5453 5455 5456 5458 5460 5463 5465 5469 5472
5478 5475 5472 5469 5467 5464 5462 5460 5458 5456 5455 5453 5452 5451 5450 5449 5447 5446 5444 5443 5441 5440 5439 5438 5437 5436 5435 5434 5434 5433 5434 5435 5436 5437 5439 5440 5441 5443 5444 5447 5450 5453 5457
5468 5465 5462 5459 5457 5454 5452 5450 5447 5446 5444 5442 5441 5440 5438 5437 5436 5435 5433 5431 5429 5428 5427 5426 5424 5423 5422 5421 5420 5419 5419 5420 5421 5422 5423 5425 5426 5428 5429 5432 5435 5438 5441
5458 5455 5452 5449 5446 5444 5442 5440 5437 5435 5433 5431 5430 5429 5427 5426 5424 5423 5421 5419 5417 5416 5414 5413 5412 5410 5409 5408 5407 5406 5405 5405 5406 5407 5408 5409 5410 5412 5415 5417 5420 5422 5425
5450 5446 5443 5440 5437 5434 5432 5430 5427 5425 5423 5421 5420 5418 5416 5414 5413 5411 5409 5407 5405 5403 5402 5400 5399 5397 5396 5394 5393 5392 5391 5390 5391 5392 5393 5394 5395 5397 5400 5402 5405 5407 5410
5441 5438 5435 5431 5428 5425 5423 5420 5418 5416 5413 5411 5410 5407 5406 5404 5401 5399 5397 5395 5393 5391 5389 5387 5386 5384 5383 5381 5380 5378 5377 5377 5377 5377 5378 5379 5380 5382 5384 5387 5389 5392 5395
5433 5430 5427 5424 5420 5417 5414 5412 5409 5407 5404 5402 5399 5397 5395 5393 5390 5388 5385 5383 5381 5378 5377 5375 5373 5372 5371 5369 5367 5365 5365 5364 5363 5363 5364 5364 5366 5367 5370 5372 5374 5377 5380
5426 5422 5419 5416 5412 5409 5406 5403 5400 5398 5395 5392 5389 5387 5384 5381 5379 5376 5374 5371 5369 5366 5364 5362 5360 5359 5358 5356 5354 5353 5352 5351 5350 5350 5351 5352 5352 5354 5356 5358 5360 5363 5365